CW9546 Weather Reports


Display with metric or nautical units.
time (UTC)temp
F
wind
direction
speed
MPH
gust
MPH
rain 1hr
in
rain 24hr
in
rain mn
in
humidity
%
barometer
mb
20260508065056 48 63 0.0 0.0 0.00 0.00 0.00 79 1016.1
20260508064046 48 63 0.0 0.0 0.00 0.00 0.00 79 1016.1
20260508063059 48 63 0.0 0.0 0.00 0.00 0.00 79 1016.2
20260508062034 49 63 0.0 0.0 0.00 0.00 0.00 79 1016.4
20260508061039 49 63 0.0 0.0 0.00 0.00 0.00 79 1016.4
20260508060149 49 63 0.0 0.0 0.00 0.00 0.00 79 1016.4
20260508055040 49 63 0.0 0.0 0.00 0.00 0.00 79 1016.4
20260508054044 49 63 0.0 0.0 0.00 0.00 0.00 80 1016.4
20260508053039 50 63 0.0 0.0 0.00 0.00 0.00 80 1016.3
20260508052051 50 63 0.0 0.0 0.00 0.00 0.00 80 1016.3
20260508051039 51 63 0.0 0.0 0.00 0.00 0.00 80 1016.3
20260508050038 51 63 0.0 0.0 0.00 0.00 0.00 81 1016.4
20260508045107 51 63 0.0 0.0 0.00 0.00 0.00 81 1016.5
20260508044042 52 63 0.0 0.0 0.00 0.00 0.00 81 1016.5
20260508043036 52 63 0.0 0.0 0.00 0.00 0.00 80 1016.5
20260508042052 53 63 0.0 0.0 0.00 0.00 0.00 80 1016.5
20260508041059 53 63 0.0 0.0 0.00 0.00 0.00 79 1016.5
20260508040046 54 63 0.0 0.0 0.00 0.00 0.00 78 1016.5
20260508035039 55 63 0.0 0.0 0.00 0.00 0.00 77 1016.4
20260508034033 55 63 0.0 0.0 0.00 0.00 0.00 76 1016.4
20260508033036 56 63 0.0 0.0 0.00 0.00 0.00 75 1016.5
20260508032041 57 63 0.0 0.0 0.00 0.00 0.00 74 1016.5
20260508031035 57 63 0.0 0.0 0.00 0.00 0.00 72 1016.5
20260508030044 58 63 0.0 0.0 0.00 0.00 0.00 71 1016.4
20260508025044 58 63 0.0 0.0 0.00 0.00 0.00 72 1016.4
20260508024036 59 63 0.0 0.0 0.00 0.00 0.00 70 1016.5
20260508023047 59 63 0.0 0.0 0.00 0.00 0.00 68 1016.6
20260508022040 60 63 0.0 0.0 0.00 0.00 0.00 66 1016.6
20260508021035 60 63 0.0 0.0 0.00 0.00 0.00 67 1016.6
20260508020051 60 64 0.0 0.0 0.00 0.00 0.00 65 1016.5
20260508015044 61 65 1.0 0.0 0.00 0.00 0.00 66 1016.6
20260508014052 61 32 1.0 0.0 0.00 0.00 0.00 65 1016.6
20260508013053 61 69 1.0 0.0 0.00 0.00 0.00 64 1016.9
20260508012053 61 79 1.0 0.0 0.00 0.00 0.00 67 1017.1
20260508011031 61 96 2.0 0.0 0.00 0.00 0.00 65 1017.1
20260508010114 62 101 1.0 0.0 0.00 0.00 0.00 66 1017.1
20260508005040 61 133 1.0 0.0 0.00 0.00 0.00 64 1017.2
20260508004054 62 94 1.0 0.0 0.00 0.00 0.00 65 1017.2
20260508003050 63 39 2.0 0.0 0.00 0.00 0.00 66 1017.3
20260508002033 62 290 1.0 0.0 0.00 0.00 0.00 67 1017.5
20260508001035 61 5 1.0 0.0 0.00 0.00 0.00 67 1017.5
20260508000036 62 52 1.0 0.0 0.00 0.00 0.00 67 1017.5
20260507235049 61 90 1.0 0.0 0.00 0.00 0.00 69 1017.5
20260507234106 60 91 1.0 0.0 0.00 0.00 0.00 69 1017.5
20260507233042 60 103 0.0 0.0 0.00 0.00 0.00 68 1017.5
20260507232042 60 104 1.0 0.0 0.00 0.00 0.00 70 1017.6
20260507231029 59 101 1.0 0.0 0.00 0.00 0.00 68 1017.6
20260507230108 60 107 1.0 0.0 0.00 0.00 0.00 68 1017.8
20260507225046 60 101 1.0 0.0 0.00 0.00 0.00 69 1017.9
20260507224101 60 135 2.0 0.0 0.00 0.00 0.00 68 1017.9
20260507223039 61 87 2.0 0.0 0.00 0.00 0.00 69 1017.9
20260507222043 60 110 2.0 0.0 0.00 0.00 0.00 68 1018.0
20260507221051 61 8 1.0 0.0 0.00 0.00 0.00 69 1018.0
20260507220043 61 258 1.0 0.0 0.00 0.00 0.00 69 1018.2
20260507215048 60 27 1.0 0.0 0.00 0.00 0.00 71 1018.4
20260507214104 60 350 1.0 0.0 0.00 0.00 0.00 70 1018.4
20260507213131 59 95 2.0 0.0 0.00 0.00 0.00 70 1018.6
20260507212037 59 103 2.0 0.0 0.00 0.00 0.00 70 1018.7
20260507211030 60 89 1.0 0.0 0.00 0.00 0.00 72 1018.7
20260507210035 60 91 2.0 0.0 0.00 0.00 0.00 70 1018.9
20260507205100 61 211 1.0 0.0 0.00 0.00 0.00 70 1019.1
20260507204034 59 135 2.0 0.0 0.00 0.00 0.00 70 1019.1
20260507203044 59 254 2.0 0.0 0.00 0.00 0.00 70 1019.2
20260507202034 57 130 2.0 0.0 0.00 0.00 0.00 72 1019.2
20260507200030 58 220 1.0 0.0 0.00 0.00 0.00 72 1019.5
20260507195037 57 227 2.0 0.0 0.00 0.00 0.00 74 1019.6
20260507194036 57 360 1.0 0.0 0.00 0.00 0.00 71 1019.6
20260507193037 56 115 1.0 0.0 0.00 0.00 0.00 73 1019.7
20260507192104 55 89 1.0 0.0 0.00 0.00 0.00 74 1019.6
20260507191055 56 304 1.0 0.0 0.00 0.00 0.00 72 1019.7
20260507190039 56 292 1.0 0.0 0.00 0.00 0.00 73 1019.7
20260507185037 55 27 1.0 0.0 0.00 0.00 0.00 74 1019.7
20260507184043 55 72 1.0 0.0 0.00 0.00 0.00 74 1019.7
20260507183035 55 11 1.0 0.0 0.00 0.00 0.00 74 1019.8
20260507182035 54 52 1.0 0.0 0.00 0.00 0.00 73 1019.8
20260507181056 54 137 1.0 0.0 0.00 0.00 0.00 74 1019.8
20260507180047 54 157 0.0 0.0 0.00 0.00 0.00 74 1019.9
20260507175034 53 155 0.0 0.0 0.00 0.00 0.00 75 1020.1
20260507174034 53 153 0.0 0.0 0.00 0.00 0.00 75 1020.1
20260507173040 53 151 1.0 0.0 0.00 0.00 0.00 76 1019.9
20260507172045 53 158 1.0 0.0 0.00 0.00 0.00 75 1019.9
20260507171111 53 154 1.0 0.0 0.00 0.00 0.00 75 1019.9
20260507170104 53 162 1.0 0.0 0.00 0.00 0.00 74 1019.8
20260507165044 54 136 1.0 0.0 0.00 0.00 0.00 75 1019.9
20260507164116 53 132 1.0 0.0 0.00 0.00 0.00 75 1019.8
20260507163046 53 136 1.0 0.0 0.00 0.00 0.00 75 1019.8
20260507162038 53 159 1.0 0.0 0.00 0.00 0.00 76 1019.9
20260507161125 52 143 1.0 0.0 0.00 0.00 0.00 76 1019.9
20260507160037 52 223 1.0 0.0 0.00 0.00 0.00 75 1020.1
20260507155055 52 154 2.0 0.0 0.00 0.00 0.00 75 1020.0
20260507154047 52 147 1.0 0.0 0.00 0.00 0.00 75 1020.0
20260507153042 52 162 2.0 0.0 0.00 0.00 0.00 76 1020.0
20260507152100 51 158 1.0 0.0 0.00 0.00 0.00 75 1019.9
20260507151050 51 130 1.0 0.0 0.00 0.00 0.00 75 1019.9
20260507150040 51 200 1.0 0.0 0.00 0.00 0.00 75 1020.1
20260507145035 51 186 0.0 0.0 0.00 0.00 0.00 75 1020.0
20260507144057 50 163 1.0 0.0 0.00 0.00 0.00 75 1020.0
20260507143037 50 187 1.0 0.0 0.00 0.00 0.00 75 1019.8
20260507142041 50 266 0.0 0.0 0.00 0.00 0.00 76 1020.0
20260507141037 49 131 0.0 0.0 0.00 0.00 0.00 76 1020.0
20260507140034 49 225 1.0 0.0 0.00 0.00 0.00 77 1019.8
20260507135038 49 210 0.0 0.0 0.00 0.00 0.00 80 1019.7
20260507134046 48 210 1.0 0.0 0.00 0.00 0.00 81 1019.7
20260507133041 48 184 0.0 0.0 0.00 0.00 0.00 81 1019.7
20260507132051 48 144 0.0 0.0 0.00 0.00 0.00 80 1019.7
20260507131039 47 144 0.0 0.0 0.00 0.00 0.00 80 1019.7
20260507130047 47 144 0.0 0.0 0.00 0.00 0.00 79 1019.7
20260507125051 47 144 0.0 0.0 0.00 0.00 0.00 79 1019.8
20260507124044 48 144 0.0 0.0 0.00 0.00 0.00 79 1019.8
20260507123038 47 139 0.0 0.0 0.00 0.00 0.00 79 1020.0
20260507122122 47 139 0.0 0.0 0.00 0.00 0.00 79 1020.1
20260507121048 47 139 0.0 0.0 0.00 0.00 0.00 79 1020.1
20260507120108 47 139 0.0 0.0 0.00 0.00 0.00 79 1020.2
20260507115035 47 139 0.0 0.0 0.00 0.00 0.00 79 1020.2
20260507114040 48 139 0.0 0.0 0.00 0.00 0.00 78 1020.2
20260507113035 49 139 0.0 0.0 0.00 0.00 0.00 78 1020.2
20260507112043 49 139 0.0 0.0 0.00 0.00 0.00 78 1020.3
20260507111104 50 139 0.0 0.0 0.00 0.00 0.00 77 1020.3
20260507110039 50 139 1.0 0.0 0.00 0.00 0.00 78 1020.3
20260507105047 50 146 1.0 0.0 0.00 0.00 0.00 77 1020.2
20260507104040 50 182 1.0 0.0 0.00 0.00 0.00 78 1020.2
20260507103042 51 206 0.0 0.0 0.00 0.00 0.00 79 1020.4
20260507102043 51 239 0.0 0.0 0.00 0.00 0.00 79 1020.7
20260507101042 51 242 1.0 0.0 0.00 0.00 0.00 79 1020.7
20260507100040 51 250 0.0 0.0 0.00 0.00 0.00 79 1020.6
20260507095055 51 198 1.0 0.0 0.00 0.00 0.00 79 1020.7
20260507094043 51 197 0.0 0.0 0.00 0.00 0.00 79 1020.7
20260507093119 51 196 0.0 0.0 0.00 0.00 0.00 79 1020.6
20260507092035 51 189 0.0 0.0 0.00 0.00 0.00 79 1020.6
20260507091030 51 225 1.0 0.0 0.00 0.00 0.00 79 1020.6
20260507090046 51 250 1.0 0.0 0.00 0.00 0.00 79 1020.7
20260507085037 51 257 0.0 0.0 0.00 0.00 0.00 79 1020.5
20260507084049 51 205 1.0 0.0 0.00 0.00 0.00 79 1020.5
20260507083046 51 191 1.0 0.0 0.00 0.00 0.00 79 1020.5
20260507082108 51 194 2.0 0.0 0.00 0.00 0.00 79 1020.3
20260507081044 52 266 1.0 0.0 0.00 0.00 0.00 79 1020.3
20260507075036 52 229 1.0 0.0 0.00 0.00 0.00 79 1020.2
20260507074038 52 200 1.0 0.0 0.00 0.00 0.00 79 1020.2
20260507073051 52 247 1.0 0.0 0.00 0.00 0.00 79 1020.3
20260507072100 52 283 1.0 0.0 0.00 0.00 0.00 80 1020.3
20260507071046 52 248 1.0 0.0 0.00 0.00 0.00 80 1020.3
20260507070037 52 181 1.0 0.0 0.00 0.00 0.00 81 1020.1